{"data":{"norad_id":48071,"intl_designator":"2021-025AF","name":"ONEWEB-0172","alt_names":[],"object_type":"PAYLOAD","status":"ACTIVE","operator":null,"country":"UK","launch_date":"2021-03-25","launch_site_code":"VOSTO","launch_vehicle":null,"mission":null,"orbit_class":"UNKNOWN","rcs_meters":null,"size_class":null,"mass_kg":null,"dimensions":null,"purposes":["comms"],"wikipedia_slug":null,"has_3d_model":false,"image_url":null,"decayed_at":null,"tle_current":{"epoch":"2026-09-20T01:37:20.993376Z","epoch_age_seconds":59361,"freshness":"FRESH","line1":"1 48071U 21025AF  26263.06760409 -.00000156  00000+0 -46106-3 0  9994","line2":"2 48071  87.8920 301.3474 0001721  91.7250 268.4077 13.13471555266961","mean_motion":13.13471555,"eccentricity":0.0001721,"inclination_deg":87.892,"raan_deg":301.3474,"arg_perigee_deg":91.725,"mean_anomaly_deg":268.4077,"bstar":-0.00046106,"rev_number":26696,"period_min":109.63313172016,"perigee_km":1208.4535341214,"apogee_km":1211.0652880661,"semimajor_km":7587.8964110937,"source":"CELESTRAK","updated_at":"2026-09-20T09:00:44.590393Z"}}}